Regional Weather Roundup
Issued by NWS

Home | Current Version | Previous Version | Graphics & Text | Print | Product List | Glossary On
Versions: 1 2 3 4 5 6 7 8 9 10 11 12 13 14 15 16 17 18 19 20 21 22 23 24 25 26 27 28 29 30 31 32 33 34 35 36 37 38 39 40 41 42 43 44 45 46 47 48 49 50
000
ASUS43 KMKX 292010
RWRWI

WISCONSIN REGIONAL WEATHER ROUNDUP
NATIONAL WEATHER SERVICE MILWAUKEE/SULLIVAN WI
300 PM CDT SUN MAR 29 2015

NOTE: "FAIR" INDICATES FEW OR NO CLOUDS BELOW 12,000 FEET WITH NO
SIGNIFICANT WEATHER AND/OR OBSTRUCTIONS TO VISIBILITY.

WIZ001-002-006>008-014>016-023>028-292100-
NORTHWEST WISCONSIN

CITY           SKY/WX    TMP DP  RH WIND       PRES   REMARKS
SUPERIOR ARPT  CLOUDY    42  35  77 NW30G36   29.63R
ASHLAND        CLOUDY    38  35  89 W10G21    29.55R WCI  31
HAYWARD        LGT RAIN  37  35  92 VRB7      29.59R WCI  32
SIREN          CLOUDY    42  34  73 NW20G30   29.67R
CUMBERLAND     CLOUDY    37  34  87 NW21G30   29.64R WCI  27
RICE LAKE      CLOUDY    40  36  85 W16G23    29.64R WCI  32
CHETEK         CLOUDY    39  38  95 W8        29.63R WCI  33
LADYSMITH      LGT RAIN  36  34  95 NW16      29.59R WCI  26
EAU CLAIRE     CLOUDY    40  36  86 NW18G26   29.64R WCI  31
MENOMONIE      CLOUDY    42  38  87 W21       29.66R
NEW RICHMOND   PTSUNNY   46  38  73 NW21G30   29.68R
OSCEOLA        PTSUNNY   49  37  62 NW20G31   29.71R
$$

WIZ003>005-009-010-017-018-292100-
NORTH CENTRAL WISCONSIN

CITY           SKY/WX    TMP DP  RH WIND       PRES   REMARKS
MANITOWISH WTR LGT SNOW  32  32 100 W8        29.47S WCI  25
ARBOR VITAE    CLOUDY    37  35  93 W10G18    29.47S WCI  29
WOODRUFF       CLOUDY    37  35  93 W10G18    29.47S WCI  29
RHINELANDER    LGT SNOW  33  31  92 SW13      29.48F FOG     WCI  24
EAGLE RIVER    LGT SNOW  33  30  90 SW12      29.45F WCI  24
LAND O LAKES   LGT SNOW  33  32  96 SW5       29.45F WCI  29
PHILLIPS       RAIN      33  33  97 W7G18     29.52R WCI  27
TOMAHAWK       LGT RAIN  33  32  96 W3        29.50S
MEDFORD        RAIN      36  35  96 W16G24    29.53R WCI  26
MERRILL        LGT RAIN  34  34 100 W9        29.51F WCI  26
$$

WIZ029-030-035-036-043>047-292100-
CENTRAL WISCONSIN

CITY           SKY/WX    TMP DP  RH WIND       PRES   REMARKS
WAUSAU         CLOUDY    35  34  96 SW13      29.50F FOG     WCI  26
MOSINEE        RAIN      36  36 100 SW12      29.53F WCI  27
MARSHFIELD     LGT RAIN  40  37  89 W17G30    29.54F FOG     WCI  31
STEVENS POINT  LGT RAIN  35  34  96 SW9G18    29.55F WCI  27
WAUPACA        CLOUDY    38  34  85 SW14G23   29.57F FOG     WCI  30
WAUTOMA        MIX PCPN  37  36  96 SW15G24   29.60F FOG     WCI  28
WISC RAPIDS    LGT RAIN  39  36  89 SW12      29.57F FOG     WCI  32
CAMP DOUGLAS   CLOUDY    41  41 100 SW10      29.59F
$$

WIZ011>013-019>022-031-037>040-048>050-292100-
NORTHEAST WISCONSIN

CITY           SKY/WX    TMP DP  RH WIND       PRES   REMARKS
ANTIGO         CLOUDY    32  32  99 SW9       29.49F FOG     WCI  24
SHAWANO        DRIZZLE   36  33  90 SW10      29.55F WCI  28
OCONTO         CLOUDY    34  33  97 SW14G22   29.56F WCI  24
STURGEON BAY   CLOUDY    34  28  80 SW17G28   29.59F WCI  23
GREEN BAY      CLOUDY    36  32  85 SW20G29   29.57  WCI  25
MANITOWOC      CLOUDY    35  33  92 SW20G25   29.63F WCI  24
APPLETON       CLOUDY    34  32  93 SW21G28   29.59F WCI  22
CLINTONVILLE   CLOUDY    34  32  93 SW10G23   29.56F WCI  26
OSHKOSH        CLOUDY    36  31  82 SW24G38   29.59F WCI  24
$$

WIZ032>034-041-042-053>061-292100-
SOUTHWEST WISCONSIN

CITY           SKY/WX    TMP DP  RH WIND       PRES   REMARKS
LA CROSSE      CLOUDY    46  36  68 W22G29    29.67R
SPARTA         CLOUDY    44  37  78 W15G26    29.63R
VIROQUA        CLOUDY    43  38  82 W21G37    29.65R
BOSCOBEL       LGT RAIN  49  40  71 SW17G25   29.68F
PRAIRIE DU CHI CLOUDY    47  37  68 W33G40    29.72R
PLATTEVILLE    CLOUDY    46  42  85 S21G26    29.70F
$$

WIZ056-057-062-063-064-067-068-292100-
SOUTH CENTRAL WISCONSIN

CITY           SKY/WX    TMP DP  RH WIND       PRES   REMARKS
REEDSBURG      CLOUDY    39  36  89 SW13      29.62F WCI  32
BARABOO/DELLS  CLOUDY    38  34  87 S14G20    29.61F WCI  30
LONE ROCK      CLOUDY    43  37  79 SW10      29.65F
MINERAL POINT  PTSUNNY   43  37  81 S16       29.67F
MADISON        CLOUDY    37  33  85 S15G23    29.68F WCI  28
MIDDLETON      CLOUDY    41  36  83 SW15G22   29.67F
WATERTOWN      CLOUDY    35  33  94 SW21G28   29.70F WCI  23
MONROE         CLOUDY    41  37  87 S24G30    29.70F
JANESVILLE     NOT AVBL
$$

WIZ051-052-058>065-066-070>072-292100-
SOUTHEAST WISCONSIN

CITY           SKY/WX    TMP DP  RH WIND       PRES   REMARKS
MILWAUKEE      CLOUDY    38  29  70 SW32G41   29.74F WCI  25
WAUKESHA       CLOUDY    34  28  80 S17G38    29.74F WCI  23
MILWAUKEE/TIMM CLOUDY    36  28  75 SW22G31   29.73F WCI  24
RACINE         CLOUDY    38  30  73 SW21G39   29.77F WCI  28
BURLINGTON     CLOUDY    34  29  82 SW26      29.76F WCI  21
KENOSHA        CLOUDY    37  30  75 SW18G31   29.77F WCI  27
FOND DU LAC    CLOUDY    36  30  79 SW26G37   29.63F WCI  24
SHEBOYGAN      CLOUDY    35  31  85 SW23G33   29.66F WCI  23
WEST BEND      CLOUDY    34  30  86 SW20G29   29.68F WCI  22
JUNEAU         DRIZZLE   34  31  91 S24G31    29.70F WCI  21
$$

LSZ147-162-292100-
LAKE SUPERIOR

STATION/POSITION TIME  TEMP    WIND        PRES    WAVE
                       AIR SEA DIR/SP/G            HT/PER
                 (UTC) (F)     (DEG/KT/KT) (MB)    (FT/S)
DEVILS ISLAND    2000   37     280/ 16/ 18 1000.4R
PORT WING        2000   38     290/ 18/ 24 1002.0R
SAXON HARBOR     1900   35     230/  6/ 13  999.0R
$$

LMZ867-665-643>646-292100-
LAKE MICHIGAN

STATION/POSITION TIME  TEMP    WIND        PRES    WAVE
                       AIR SEA DIR/SP/G            HT/PER
                 (UTC) (F)     (DEG/KT/KT) (MB)    (FT/S)
SISTER BAY       1732   32     180/ 14/ 17   N/A
KEWAUNEE LAKESHO 1900          200/ 15/ 21   N/A
SHEBOYGAN LAKESH 2000   36     220/ 27/ 30 1005.0F
PORT WASHINGTON  1922   36     210/ 15/ 24 1007.1F
MILWAUKEE LAKESH 1900   35     210/ 24/ 35   N/A
KENOSHA   LAKESH 2000   38     210/ 20/ 30 1008.5F
$$

TC  - TEMPERATURE IN CELSIUS
VSB - VISIBILITY IN STATUTE MILES
WCI - WIND CHILL INDEX
HX  - HEAT INDEX




USA.gov is the U.S. government's official web portal to all federal, state and local government web resources and services.